Location: Clarks Summit,Pa.
(41.5000°N, 75.6000°W)
Time: 22:11:25
(UTC-04:00)

Envisat - Visible Passes

Search period start: 21 May 2018 00:00
Search period end: 31 May 2018 00:00
Orbit: 764 x 766 km, 98.2° (Epoch: 21 May)

Date Brightness Start Highest point End Pass type
(mag) Time Alt. Az. Time Alt. Az. Time Alt. Az.
21 May 5.5 21:34:53 10° SW 21:38:20 18° W 21:41:47 10° NW visible
22 May 4.4 20:56:35 10° SSW 21:01:19 40° W 21:06:06 10° NNW visible
24 May 5.2 21:23:06 10° SW 21:27:04 23° W 21:31:05 10° NW visible
26 May 5.7 21:50:40 10° WSW 21:52:55 13° W 21:55:11 10° WNW visible
27 May 4.9 21:11:28 10° SSW 21:15:50 29° W 21:20:14 10° NW visible
29 May 5.6 21:38:28 10° SW 21:41:38 17° W 21:44:50 10° NW visible
30 May 4.5 20:59:57 10° SSW 21:04:37 36° W 21:09:18 10° NNW visible
